#timestamp,LO_Frequency,Hit,StdDev 
1543989615.8,286046998.4,N
1543989635.6,286047001.0,N
1543989655.5,286047001.9,N
1543989675.3,286047000.2,N
1543989695.1,286047000.9,N
1543989715.9,286047000.9,N
1543989735.7,286046998.2,N
1543989755.6,286046998.6,N
1543989775.4,286046998.3,N
1543989795.2,286046996.5,N
1543989815.1,286046998.7,N
1543989816.0,286046998.7,N
1543989835.8,286046998.6,N
1543989855.6,286047000.7,N
1543989875.5,286047001.1,N
1543989895.3,286047000.6,N
1543989915.2,286047000.3,N
1543989935.9,286047003.5,N
1543989955.7,286047003.9,N
1543989975.6,286047001.3,N
1543989995.4,286047001.5,N
1543990015.2,286046999.9,N
1543990035.1,286047000.3,N
1543990036.0,286047000.3,N
1543990055.8,286047001.7,N
1543990075.7,286047001.2,N
1543990095.5,286046998.8,N
1543990115.3,286046998.5,N
1543990135.2,286046998.8,N
1543990155.0,286046997.7,N
1543990155.9,286046997.7,N
1543990175.8,286046995.9,N
1543990195.6,286046995.6,N
1543990215.4,286046994.9,N
1543990235.3,286046997.2,N
1543990255.1,286046995.5,N
1543990275.8,286046996.1,N
1543990295.7,286046997.7,N
1543990315.5,286046995.5,N
1543990335.4,286046997.7,N
1543990355.2,286046997.5,N
1543990375.0,286046998.2,N
1543990375.9,286046998.2,N
1543990395.8,286046998.1,N
1543990415.6,286046999.8,N
1543990435.5,286047011.9,Y
1543990455.3,286047004.3,P
1543990475.1,286047001.5,N
1543990495.9,286047002.7,N
1543990515.7,286047001.5,N
1543990535.5,286047000.4,N
1543990555.4,286047000.3,N
1543990575.2,286046998.9,N
1543990595.1,286047001.2,N
1543990596.0,286047001.2,N
1543990615.8,286046998.2,N
1543990635.6,286046998.6,N
1543990655.5,286047000.8,N
1543990675.3,286047001.2,N
1543990695.2,286046998.4,N
1543990715.9,286047002.6,N
1543990735.7,286046998.1,N
1543990755.6,286047000.9,N
1543990775.4,286046998.4,N
1543990795.2,286046998.8,N
1543990815.1,286046996.7,N
1543990816.0,286046996.7,N
1543990835.8,286046999.4,N
1543990855.7,286046997.0,N
1543990875.5,286046999.5,N
1543990895.3,286046996.8,N
1543990915.2,286046999.1,N
1543990935.0,286046998.9,N
1543990935.9,286046998.9,N
1543990955.8,286046996.8,N
1543990975.6,286046996.7,N
1543990995.4,286046999.3,N
1543991015.3,286046998.5,N
1543991035.1,286046998.7,N
1543991055.8,286046999.1,N
1543991075.7,286046999.6,N
1543991095.5,286046997.3,N
1543991115.4,286047001.0,N
1543991135.2,286046998.1,N
1543991155.0,286047000.5,N
1543991155.9,286047000.5,N
1543991175.8,286046999.2,N
1543991195.6,286047001.1,N
1543991215.4,286046999.5,N
1543991235.3,286046999.3,N
1543991255.1,286046999.3,N
1543991275.9,286046999.2,N
1543991295.7,286046995.2,Y
1543991315.5,286046995.0,P
1543991335.4,286046997.4,N
1543991355.2,286046994.9,P
1543991375.1,286046996.5,N
1543991376.0,286046996.5,N
1543991395.8,286046999.4,N
1543991415.6,286046995.0,Y
1543991435.5,286047000.4,P
1543991455.3,286047000.0,N
1543991475.1,286047000.9,N
1543991495.9,286046998.1,N
1543991515.7,286046996.9,N
1543991535.6,286046994.9,Y
1543991555.4,286046996.6,P
1543991575.2,286046998.4,N
1543991595.1,286047000.4,N
1543991596.0,286047000.4,N
1543991615.8,286046999.7,N
1543991635.7,286047002.2,N
1543991655.5,286047002.8,N
1543991675.3,286047002.3,N
1543991695.2,286047000.9,N
1543991715.0,286047002.5,N
1543991715.9,286047002.5,N
1543991735.8,286047000.5,N
1543991757.0,286047000.4,N
1543991775.0,286047002.4,N
1543991775.9,286047002.4,N
1543991795.8,286047001.3,N
1543991815.6,286047001.0,N
1543991835.4,286047000.1,N
1543991855.3,286047000.9,N
1543991875.1,286046999.2,N
1543991895.9,286046999.6,N
1543991915.7,286046997.1,N
1543991935.5,286046997.8,N
1543991955.4,286046998.1,N
1543991975.2,286046998.7,N
1543991995.0,286047000.0,N
1543991995.9,286047000.0,N
1543992015.8,286047000.8,N
1543992035.6,286047000.5,N
1543992055.5,286047001.1,N
1543992075.3,286046998.1,N
1543992095.1,286046999.8,N
1543992115.9,286047002.8,N
1543992135.7,286047002.6,N
1543992155.6,286047001.5,N
1543992175.4,286047001.4,N
1543992195.2,286046999.7,N
1543992215.1,286047000.7,N
1543992216.0,286047000.7,N
1543992235.8,286046998.9,N
1543992255.6,286046999.0,N
1543992275.5,286047001.2,N
1543992295.3,286046996.9,N
1543992315.2,286046999.2,N
1543992335.9,286046995.4,Y
1543992355.7,286046991.9,P
1543992375.6,286046991.9,N
1543992395.4,286046992.6,N
1543992415.2,286046992.5,N
1543992435.1,286046993.8,N
1543992436.0,286046993.8,N
1543992455.8,286046993.2,N
1543992475.7,286046990.1,Y
1543992495.5,286046996.9,P
1543992515.3,286046998.4,N
1543992535.2,286046999.1,N
1543992555.0,286046996.7,N
1543992555.9,286046996.7,N
1543992575.8,286046996.8,N
1543992595.6,286046997.6,N
1543992615.4,286046999.6,N
1543992635.3,286046998.0,N
1543992655.1,286046996.4,N
1543992675.8,286046993.8,Y
1543992695.7,286046995.7,P
1543992715.5,286046995.8,P
1543992735.4,286046995.5,P
1543992755.2,286046997.5,Y
1543992775.0,286047000.6,P
1543992775.9,286047000.6,N
1543992795.8,286046998.1,N
1543992815.6,286046997.1,N
1543992835.5,286046998.3,N
1543992855.3,286046998.4,N
1543992875.1,286046999.1,N
1543992895.9,286046996.8,N
1543992915.7,286046997.1,N
1543992935.5,286046999.6,N
1543992955.4,286046996.7,N
1543992975.2,286046999.4,N
1543992995.1,286046996.7,N
1543992996.0,286046996.7,N
1543993015.8,286046999.6,N
1543993035.6,286046999.1,N
1543993055.5,286046999.1,N
1543993075.3,286046998.5,N
1543993095.1,286046998.3,N
1543993115.9,286046999.1,N
1543993135.7,286046998.1,N
1543993155.6,286047000.4,N
1543993175.4,286046999.8,N
1543993195.2,286047000.6,N
